"SCET";"TARGET";"ELECTRON_DENSITY";"ERROR_FLAG";"ELECTRON_DENSITY_ERROR";"FREQ_FCE";"MEASURED_VALUE";"MEASURED_ITEM";"FREQ_PLASMA";"FREQ_UPPER_HYBRID";"FREQ_R_EQUALS_ZERO";"FREQ_L_EQUALS_ZERO";"ORBIT_NUMBER";"SATURN_RADIUS";"SATURN_IAU_LONGITUDE";"SATURN_SLS4_S_LONGITUDE";"SATURN_SLS4_N_LONGITUDE";"SATURN_SLS5_S_LONGITUDE";"SATURN_SLS5_N_LONGITUDE";"SATURN_LOCAL_TIME";"SATURN_KRONOGRAPHIC_LATITUDE";"SATURN_MAGNETIC_LATITUDE";"SATURN_L";"SATURN_L_OFFSET";"SATURN_SOLAR_EQUATORIAL_X";"SATURN_SOLAR_EQUATORIAL_Y";"SATURN_SOLAR_EQUATORIAL_Z";"SATURN_ALTITUDE";"ENCELADUS_ENCOUNTER_NUMBER";"ENCELADUS_RADIUS";"ENCELADUS_COROTATIONAL_X";"ENCELADUS_COROTATIONAL_Y";"ENCELADUS_COROTATIONAL_Z";"ENCELADUS_TRUE_ANOMALY";"ENCELADUS_PERIAPSIS_TIME";"JUPITER_RADIUS";"JUPITER_SYSTEMIII_LONGITUDE";"JUPITER_MAGNETIC_LATITUDE";"JUPITER_MAGNETIC_LOCAL_TIME";"JUPITER_L";"IO_PHASE";"EARTH_RADIUS";"EARTH_MAGNETIC_LATITUDE";"EARTH_LOCAL_TIME";"EARTH_L"
"[UTC]";"[0=Saturn, 1=Enceladus, 2=Jupiter, 3=Earth]";"[cm-3]";"[0=automated, 1=manual]";"[normalized density error]";"[Hz]";"[Hz]";"[0=upper hybrid frequency, 1=plasma frequency cutoff]";"[Hz]";"[Hz]";"[Hz]";"[Hz}";"[0, A, B, C, 3, 4, ... , 292, 293]";"[Rs where 1Rs=60268km]";"[degrees]";"[degrees]";"[degrees]";"[degrees]";"[degrees]";"[hours]";"[degrees]";"[degrees where offset=2293km north]";"[Rs where 1Rs=60268km]";"[Rs where 1Rs=60268km and offset=2293km north]";"[Rs where 1Rs=60268km]";"[Rs where 1Rs=60268km]";"[Rs where 1Rs=60268km]";"[km where ellipsoid a,b=60268km and c=54364km]";"[E0, E1, E2, ... , E21, E22]";"[Renc where 1Renc=252.1km]";"[Renc where 1Renc=252.1km]";"[Renc where 1Renc=252.1km]";"[Renc where 1Renc=252.1km]";"[degrees]";"[UTC]";"[Rj where 1Rj=71492km]";"[degrees]";"[degrees using JRM09 model]";"[hours using JRM09 model]";"[Rj where 1Rj=71492km]";"[degrees]";"[Re where 1Re=6378.1366km]";"[degrees]";"[hours]";"[Re where 1Re=6378.1366km]"
2007-05-10T16:18:06.962Z;0;5.5340e+00;0;     0.204;  3025.708;  21339.977; 0;  21124.387;  21339.977;  22691.344;  19665.635; 44;   5.858; 316.225; 329.912; 350.336; 297.721; 349.683;   0.178;  17.080;  16.724;   6.411;   5.841;  -5.594;  -0.261;   1.720;;;;;;;;;;;;;;;;;;
2007-05-10T16:18:14.962Z;0;5.6350e+00;0;     0.158;  3025.708;  21530.754; 0;  21317.094;  21530.754;  22883.562;  19857.855; 44;   5.857; 316.287; 329.972; 350.399; 297.781; 349.746;   0.179;  17.071;  16.714;   6.409;   5.840;  -5.593;  -0.262;   1.719;;;;;;;;;;;;;;;;;;
2007-05-10T16:18:39.337Z;0;5.4890e+00;0;     0.137;  3025.708;  21254.537; 0;  21038.070;  21254.537;  22605.250;  19579.541; 44;   5.854; 316.476; 330.158; 350.589; 297.965; 349.938;   0.181;  17.043;  16.687;   6.405;   5.838;  -5.591;  -0.266;   1.716;;;;;;;;;;;;;;;;;;
2007-05-10T16:18:46.961Z;0;5.5550e+00;0;     0.187;  3025.708;  21380.084; 0;  21164.902;  21380.084;  22731.756;  19706.049; 44;   5.854; 316.535; 330.215; 350.649; 298.022; 349.998;   0.182;  17.035;  16.678;   6.403;   5.837;  -5.590;  -0.267;   1.715;;;;;;;;;;;;;;;;;;
2007-05-10T16:18:54.961Z;0;5.4770e+00;0;     0.128;  3025.708;  21232.143; 0;  21015.445;  21232.143;  22582.684;  19556.975; 44;   5.853; 316.597; 330.276; 350.711; 298.083; 350.061;   0.183;  17.026;  16.669;   6.402;   5.836;  -5.590;  -0.268;   1.714;;;;;;;;;;;;;;;;;;
2007-05-10T16:19:02.961Z;0;5.5550e+00;0;     0.194;  3034.528;  21381.814; 0;  21165.387;  21381.814;  22736.965;  19702.438; 44;   5.852; 316.659; 330.337; 350.774; 298.143; 350.124;   0.184;  17.017;  16.660;   6.400;   5.835;  -5.589;  -0.269;   1.712;;;;;;;;;;;;;;;;;;
2007-05-10T16:19:10.961Z;0;5.5890e+00;0;     0.179;  3034.528;  21444.584; 0;  21228.797;  21444.584;  22800.213;  19765.686; 44;   5.851; 316.721; 330.398; 350.836; 298.203; 350.187;   0.185;  17.008;  16.651;   6.398;   5.834;  -5.589;  -0.271;   1.711;;;;;;;;;;;;;;;;;;
2007-05-10T16:19:18.961Z;0;5.5450e+00;0;     0.227;  3034.528;  21361.662; 0;  21145.029;  21361.662;  22716.658;  19682.131; 44;   5.850; 316.783; 330.459; 350.899; 298.263; 350.250;   0.186;  16.999;  16.642;   6.397;   5.833;  -5.588;  -0.272;   1.710;;;;;;;;;;;;;;;;;;
2007-05-10T16:19:26.961Z;0;5.3370e+00;0;     0.203;  3034.528;  20966.932; 0;  20746.178;  20966.932;  22318.850;  19284.322; 44;   5.849; 316.845; 330.519; 350.961; 298.324; 350.313;   0.186;  16.990;  16.632;   6.395;   5.832;  -5.587;  -0.273;   1.709;;;;;;;;;;;;;;;;;;
2007-05-10T16:19:34.961Z;0;5.3940e+00;0;     0.179;  3034.528;  21076.020; 0;  20856.420;  21076.020;  22428.799;  19394.271; 44;   5.848; 316.907; 330.580; 351.024; 298.384; 350.376;   0.187;  16.980;  16.623;   6.394;   5.832;  -5.587;  -0.274;   1.708;;;;;;;;;;;;;;;;;;
2007-05-10T16:19:42.961Z;0;5.5370e+00;0;     0.188;  3034.528;  21347.650; 0;  21130.873;  21347.650;  22702.539;  19668.012; 44;   5.848; 316.969; 330.641; 351.086; 298.444; 350.439;   0.188;  16.971;  16.614;   6.392;   5.831;  -5.586;  -0.276;   1.707;;;;;;;;;;;;;;;;;;
2007-05-10T16:19:50.961Z;0;5.3970e+00;0;     0.171;  3034.528;  21081.850; 0;  20862.311;  21081.850;  22434.676;  19400.148; 44;   5.847; 317.031; 330.702; 351.149; 298.504; 350.501;   0.189;  16.962;  16.605;   6.391;   5.830;  -5.585;  -0.277;   1.706;;;;;;;;;;;;;;;;;;
2007-05-10T16:20:06.961Z;0;5.3220e+00;0;     0.213;  3041.108;  20937.871; 0;  20715.842;  20937.871;  22292.125;  19251.018; 44;   5.845; 317.155; 330.823; 351.274; 298.626; 350.627;   0.191;  16.944;  16.587;   6.387;   5.828;  -5.584;  -0.279;   1.703;;;;;;;;;;;;;;;;;;
2007-05-10T16:20:14.961Z;0;5.2950e+00;0;     0.199;  3041.108;  20886.162; 0;  20663.578;  20886.162;  22240.002;  19198.895; 44;   5.844; 317.217; 330.884; 351.336; 298.686; 350.689;   0.192;  16.935;  16.578;   6.386;   5.827;  -5.584;  -0.281;   1.702;;;;;;;;;;;;;;;;;;
2007-05-10T16:20:22.961Z;0;5.4160e+00;0;     0.240;  3041.108;  21118.268; 0;  20898.154;  21118.268;  22473.953;  19432.846; 44;   5.843; 317.279; 330.945; 351.399; 298.747; 350.751;   0.193;  16.926;  16.569;   6.384;   5.826;  -5.583;  -0.282;   1.701;;;;;;;;;;;;;;;;;;
2007-05-10T16:20:38.961Z;0;5.2380e+00;0;     0.205;  3041.108;  20775.244; 0;  20551.459;  20775.244;  22128.186;  19087.078; 44;   5.841; 317.403; 331.066; 351.524; 298.869; 350.875;   0.194;  16.908;  16.550;   6.381;   5.825;  -5.582;  -0.284;   1.699;;;;;;;;;;;;;;;;;;
2007-05-10T16:20:46.961Z;0;5.3480e+00;0;     0.176;  3041.108;  20989.240; 0;  20767.760;  20989.240;  22343.904;  19302.797; 44;   5.841; 317.465; 331.127; 351.586; 298.930; 350.938;   0.195;  16.899;  16.541;   6.380;   5.824;  -5.581;  -0.286;   1.698;;;;;;;;;;;;;;;;;;
2007-05-10T16:20:54.961Z;0;5.4300e+00;0;     0.120;  3041.108;  21146.188; 0;  20926.369;  21146.188;  22502.094;  19460.984; 44;   5.840; 317.527; 331.188; 351.648; 298.991; 351.000;   0.196;  16.890;  16.532;   6.378;   5.823;  -5.580;  -0.287;   1.696;;;;;;;;;;;;;;;;;;
2007-05-10T16:21:02.961Z;0;5.4440e+00;0;     0.126;  3047.128;  21172.734; 0;  20952.320;  21172.734;  22531.203;  19484.076; 44;   5.839; 317.589; 331.248; 351.711; 299.052; 351.062;   0.197;  16.881;  16.523;   6.377;   5.822;  -5.580;  -0.288;   1.695;;;;;;;;;;;;;;;;;;
2007-05-10T16:21:10.961Z;0;5.4180e+00;0;     0.120;  3047.128;  21123.877; 0;  20902.947;  21123.877;  22481.961;  19434.834; 44;   5.838; 317.651; 331.309; 351.773; 299.113; 351.124;   0.198;  16.872;  16.514;   6.375;   5.821;  -5.579;  -0.289;   1.694;;;;;;;;;;;;;;;;;;
2007-05-10T16:21:18.961Z;0;5.4470e+00;0;     0.116;  3047.128;  21179.223; 0;  20958.877;  21179.223;  22537.744;  19490.615; 44;   5.837; 317.713; 331.370; 351.836; 299.174; 351.186;   0.199;  16.862;  16.504;   6.373;   5.820;  -5.579;  -0.291;   1.693;;;;;;;;;;;;;;;;;;
2007-05-10T16:21:26.960Z;0;5.4350e+00;0;     0.123;  3047.128;  21156.221; 0;  20935.633;  21156.221;  22514.561;  19467.432; 44;   5.836; 317.775; 331.430; 351.898; 299.236; 351.248;   0.200;  16.853;  16.495;   6.372;   5.819;  -5.578;  -0.292;   1.692;;;;;;;;;;;;;;;;;;
2007-05-10T16:21:34.960Z;0;5.4200e+00;0;     0.118;  3047.128;  21126.797; 0;  20905.898;  21126.797;  22484.904;  19437.777; 44;   5.835; 317.837; 331.491; 351.961; 299.297; 351.310;   0.200;  16.844;  16.486;   6.370;   5.819;  -5.577;  -0.293;   1.691;;;;;;;;;;;;;;;;;;
2007-05-10T16:21:42.960Z;0;5.3910e+00;0;     0.120;  3047.128;  21071.740; 0;  20850.258;  21071.740;  22429.412;  19382.285; 44;   5.834; 317.899; 331.552; 352.023; 299.358; 351.372;   0.201;  16.835;  16.477;   6.369;   5.818;  -5.577;  -0.294;   1.690;;;;;;;;;;;;;;;;;;
2007-05-10T16:21:50.960Z;0;5.3970e+00;0;     0.174;  3047.128;  21082.443; 0;  20861.074;  21082.443;  22440.201;  19393.072; 44;   5.834; 317.961; 331.613; 352.086; 299.419; 351.434;   0.202;  16.826;  16.468;   6.367;   5.817;  -5.576;  -0.296;   1.689;;;;;;;;;;;;;;;;;;
2007-05-10T16:22:06.960Z;0;5.5160e+00;0;     0.183;  3053.568;  21310.945; 0;  21091.043;  21310.945;  22673.018;  19619.449; 44;   5.832; 318.084; 331.734; 352.210; 299.541; 351.558;   0.204;  16.808;  16.449;   6.364;   5.815;  -5.575;  -0.298;   1.686;;;;;;;;;;;;;;;;;;
2007-05-10T16:22:14.960Z;0;5.3620e+00;0;     0.136;  3053.568;  21017.545; 0;  20794.541;  21017.545;  22377.299;  19323.730; 44;   5.831; 318.146; 331.795; 352.273; 299.602; 351.620;   0.205;  16.799;  16.440;   6.362;   5.814;  -5.574;  -0.299;   1.685;;;;;;;;;;;;;;;;;;
2007-05-10T16:22:22.960Z;0;5.4580e+00;0;     0.206;  3053.568;  21200.926; 0;  20979.871;  21200.926;  22562.137;  19508.568; 44;   5.830; 318.208; 331.855; 352.335; 299.663; 351.682;   0.206;  16.790;  16.431;   6.361;   5.813;  -5.574;  -0.301;   1.684;;;;;;;;;;;;;;;;;;
2007-05-10T16:22:30.960Z;0;5.6830e+00;0;     0.263;  3053.568;  21624.008; 0;  21407.322;  21624.008;  22988.482;  19934.914; 44;   5.829; 318.270; 331.916; 352.398; 299.725; 351.743;   0.207;  16.780;  16.422;   6.359;   5.813;  -5.573;  -0.302;   1.683;;;;;;;;;;;;;;;;;;
2007-05-10T16:22:38.960Z;0;5.5190e+00;0;     0.197;  3053.568;  21315.256; 0;  21095.398;  21315.256;  22677.361;  19623.793; 44;   5.828; 318.332; 331.977; 352.460; 299.786; 351.805;   0.207;  16.771;  16.413;   6.358;   5.812;  -5.572;  -0.303;   1.682;;;;;;;;;;;;;;;;;;
2007-05-10T16:22:46.960Z;0;5.6530e+00;0;     0.197;  3053.568;  21568.488; 0;  21351.238;  21568.488;  22932.543;  19878.975; 44;   5.828; 318.394; 332.037; 352.523; 299.847; 351.867;   0.208;  16.762;  16.403;   6.356;   5.811;  -5.572;  -0.304;   1.681;;;;;;;;;;;;;;;;;;
2007-05-10T16:22:54.960Z;0;5.5030e+00;0;     0.179;  3053.568;  21286.672; 0;  21066.518;  21286.672;  22648.555;  19594.986; 44;   5.827; 318.456; 332.098; 352.585; 299.908; 351.929;   0.209;  16.753;  16.394;   6.355;   5.810;  -5.571;  -0.306;   1.679;;;;;;;;;;;;;;;;;;
2007-05-10T16:23:02.960Z;0;5.3910e+00;0;     0.175;  3052.952;  21073.340; 0;  20851.021;  21073.340;  22433.299;  19380.348; 44;   5.826; 318.518; 332.159; 352.647; 299.970; 351.991;   0.210;  16.744;  16.385;   6.353;   5.809;  -5.570;  -0.307;   1.678;;;;;;;;;;;;;;;;;;
2007-05-10T16:23:10.960Z;0;5.4140e+00;0;     0.107;  3052.952;  21116.625; 0;  20894.768;  21116.625;  22476.928;  19423.977; 44;   5.825; 318.580; 332.220; 352.710; 300.031; 352.052;   0.211;  16.735;  16.376;   6.352;   5.808;  -5.570;  -0.308;   1.677;;;;;;;;;;;;;;;;;;
2007-05-10T16:23:18.960Z;0;5.4040e+00;0;     0.132;  3052.952;  21097.414; 0;  20875.354;  21097.414;  22457.564;  19404.613; 44;   5.824; 318.642; 332.280; 352.772; 300.092; 352.114;   0.212;  16.726;  16.366;   6.350;   5.807;  -5.569;  -0.309;   1.676;;;;;;;;;;;;;;;;;;
2007-05-10T16:23:26.960Z;0;5.4630e+00;0;     0.139;  3052.952;  21210.010; 0;  20989.141;  21210.010;  22571.051;  19518.100; 44;   5.823; 318.704; 332.341; 352.835; 300.153; 352.176;   0.213;  16.716;  16.357;   6.348;   5.807;  -5.568;  -0.311;   1.675;;;;;;;;;;;;;;;;;;
2007-05-10T16:23:34.960Z;0;5.3590e+00;0;     0.150;  3052.952;  21010.299; 0;  20787.307;  21010.299;  22369.754;  19316.803; 44;   5.822; 318.765; 332.402; 352.897; 300.215; 352.238;   0.214;  16.707;  16.348;   6.347;   5.806;  -5.568;  -0.312;   1.674;;;;;;;;;;;;;;;;;;
2007-05-10T16:23:42.960Z;0;5.4220e+00;0;     0.143;  3052.952;  21131.537; 0;  20909.838;  21131.537;  22491.959;  19439.008; 44;   5.821; 318.827; 332.462; 352.960; 300.276; 352.299;   0.215;  16.698;  16.339;   6.345;   5.805;  -5.567;  -0.313;   1.673;;;;;;;;;;;;;;;;;;
2007-05-10T16:23:50.960Z;0;5.3410e+00;0;     0.144;  3052.952;  20975.771; 0;  20752.408;  20975.771;  22334.951;  19281.998; 44;   5.821; 318.889; 332.523; 353.022; 300.337; 352.361;   0.215;  16.689;  16.330;   6.344;   5.804;  -5.567;  -0.314;   1.671;;;;;;;;;;;;;;;;;;
2007-05-10T16:23:58.960Z;0;5.2880e+00;0;     0.148;  3052.952;  20873.904; 0;  20649.439;  20873.904;  22232.260;  19179.309; 44;   5.820; 318.951; 332.584; 353.084; 300.399; 352.423;   0.216;  16.680;  16.320;   6.342;   5.803;  -5.566;  -0.316;   1.670;;;;;;;;;;;;;;;;;;
2007-05-10T16:24:06.959Z;0;5.2800e+00;0;     0.169;  3061.268;  20859.619; 0;  20633.768;  20859.619;  22221.096;  19159.828; 44;   5.819; 319.013; 332.644; 353.147; 300.460; 352.484;   0.217;  16.671;  16.311;   6.341;   5.802;  -5.565;  -0.317;   1.669;;;;;;;;;;;;;;;;;;
2007-05-10T16:24:14.959Z;0;5.5520e+00;0;     0.172;  3061.268;  21380.176; 0;  21159.881;  21380.176;  22745.803;  19684.535; 44;   5.818; 319.075; 332.705; 353.209; 300.521; 352.546;   0.218;  16.661;  16.302;   6.339;   5.801;  -5.565;  -0.318;   1.668;;;;;;;;;;;;;;;;;;
2007-05-10T16:24:22.959Z;0;5.4340e+00;0;     0.151;  3061.268;  21155.318; 0;  20932.656;  21155.318;  22519.178;  19457.910; 44;   5.817; 319.137; 332.766; 353.271; 300.583; 352.607;   0.219;  16.652;  16.293;   6.338;   5.801;  -5.564;  -0.319;   1.667;;;;;;;;;;;;;;;;;;
2007-05-10T16:24:30.959Z;0;5.2260e+00;0;     0.174;  3061.268;  20755.648; 0;  20528.652;  20755.648;  22116.270;  19055.002; 44;   5.816; 319.199; 332.826; 353.334; 300.644; 352.669;   0.220;  16.643;  16.283;   6.336;   5.800;  -5.563;  -0.321;   1.666;;;;;;;;;;;;;;;;;;
2007-05-10T16:24:38.959Z;0;5.1530e+00;0;     0.176;  3061.268;  20613.873; 0;  20385.299;  20613.873;  21973.316;  18912.047; 44;   5.815; 319.261; 332.887; 353.396; 300.706; 352.731;   0.221;  16.634;  16.274;   6.334;   5.799;  -5.563;  -0.322;   1.665;;;;;;;;;;;;;;;;;;
2007-05-10T16:24:46.959Z;0;5.0570e+00;0;     0.189;  3061.268;  20425.416; 0;  20194.709;  20425.416;  21783.266;  18721.998; 44;   5.815; 319.322; 332.948; 353.459; 300.767; 352.792;   0.222;  16.625;  16.265;   6.333;   5.798;  -5.562;  -0.323;   1.663;;;;;;;;;;;;;;;;;;
2007-05-10T16:24:54.959Z;0;5.2860e+00;0;     0.174;  3061.268;  20872.438; 0;  20646.727;  20872.438;  22234.018;  19172.750; 44;   5.814; 319.384; 333.008; 353.521; 300.829; 352.854;   0.222;  16.615;  16.256;   6.331;   5.797;  -5.562;  -0.324;   1.662;;;;;;;;;;;;;;;;;;
2007-05-10T16:25:02.959Z;0;5.3580e+00;0;     0.155;  3070.032;  21011.760; 0;  20786.268;  21011.760;  22377.887;  19307.854; 44;   5.813; 319.446; 333.069; 353.583; 300.890; 352.915;   0.223;  16.606;  16.246;   6.330;   5.796;  -5.561;  -0.326;   1.661;;;;;;;;;;;;;;;;;;
2007-05-10T16:25:10.959Z;0;5.3940e+00;0;     0.141;  3070.032;  21081.047; 0;  20856.305;  21081.047;  22447.732;  19377.701; 44;   5.812; 319.508; 333.130; 353.646; 300.952; 352.977;   0.224;  16.597;  16.237;   6.328;   5.795;  -5.560;  -0.327;   1.660;;;;;;;;;;;;;;;;;;
2007-05-10T16:25:18.959Z;0;5.3930e+00;0;     0.168;  3070.032;  21079.670; 0;  20854.912;  21079.670;  22446.344;  19376.312; 44;   5.811; 319.570; 333.190; 353.708; 301.013; 353.038;   0.225;  16.588;  16.228;   6.327;   5.795;  -5.560;  -0.328;   1.659;;;;;;;;;;;;;;;;;;
2007-05-10T16:25:26.959Z;0;5.3890e+00;0;     0.161;  3070.032;  21071.900; 0;  20847.059;  21071.900;  22438.512;  19368.480; 44;   5.810; 319.632; 333.251; 353.771; 301.075; 353.099;   0.226;  16.579;  16.218;   6.325;   5.794;  -5.559;  -0.329;   1.658;;;;;;;;;;;;;;;;;;
2007-05-10T16:25:34.959Z;0;5.6070e+00;0;     0.200;  3070.032;  21483.896; 0;  21263.412;  21483.896;  22853.764;  19783.730; 44;   5.809; 319.694; 333.311; 353.833; 301.136; 353.161;   0.227;  16.569;  16.209;   6.324;   5.793;  -5.558;  -0.331;   1.657;;;;;;;;;;;;;;;;;;
2007-05-10T16:25:42.959Z;0;5.4340e+00;0;     0.119;  3070.032;  21156.762; 0;  20932.832;  21156.762;  22524.055;  19454.023; 44;   5.808; 319.756; 333.372; 353.895; 301.198; 353.222;   0.228;  16.560;  16.200;   6.322;   5.792;  -5.558;  -0.332;   1.655;;;;;;;;;;;;;;;;;;
2007-05-10T16:25:50.959Z;0;5.4350e+00;0;     0.134;  3070.032;  21159.570; 0;  20935.672;  21159.570;  22526.885;  19456.854; 44;   5.808; 319.817; 333.433; 353.958; 301.259; 353.284;   0.229;  16.551;  16.191;   6.321;   5.791;  -5.557;  -0.333;   1.654;;;;;;;;;;;;;;;;;;
2007-05-10T16:26:06.959Z;0;5.4060e+00;0;     0.152;  3075.968;  21104.822; 0;  20879.463;  21104.822;  22474.014;  19398.045; 44;   5.806; 319.941; 333.554; 354.082; 301.382; 353.406;   0.230;  16.533;  16.172;   6.317;   5.789;  -5.556;  -0.336;   1.652;;;;;;;;;;;;;;;;;;
2007-05-10T16:26:14.959Z;0;5.4210e+00;0;     0.127;  3075.968;  21133.949; 0;  20908.902;  21133.949;  22503.375;  19427.406; 44;   5.805; 320.003; 333.615; 354.145; 301.444; 353.467;   0.231;  16.523;  16.163;   6.316;   5.789;  -5.555;  -0.337;   1.651;;;;;;;;;;;;;;;;;;
2007-05-10T16:26:22.959Z;0;5.4920e+00;0;     0.174;  3075.968;  21268.961; 0;  21045.359;  21268.961;  22639.465;  19563.498; 44;   5.804; 320.065; 333.675; 354.207; 301.506; 353.529;   0.232;  16.514;  16.153;   6.314;   5.788;  -5.554;  -0.338;   1.650;;;;;;;;;;;;;;;;;;
2007-05-10T16:26:30.959Z;0;5.3810e+00;0;     0.126;  3075.968;  21056.453; 0;  20830.570;  21056.453;  22425.254;  19349.285; 44;   5.803; 320.127; 333.736; 354.269; 301.567; 353.590;   0.233;  16.505;  16.144;   6.313;   5.787;  -5.554;  -0.339;   1.649;;;;;;;;;;;;;;;;;;
2007-05-10T16:26:38.958Z;0;5.4270e+00;0;     0.120;  3075.968;  21144.031; 0;  20919.094;  21144.031;  22513.539;  19437.570; 44;   5.802; 320.189; 333.796; 354.332; 301.629; 353.651;   0.234;  16.496;  16.135;   6.311;   5.786;  -5.553;  -0.341;   1.647;;;;;;;;;;;;;;;;;;
2007-05-10T16:26:46.958Z;0;5.3680e+00;0;     0.122;  3075.968;  21031.049; 0;  20804.891;  21031.049;  22399.643;  19323.676; 44;   5.802; 320.250; 333.857; 354.394; 301.691; 353.712;   0.235;  16.486;  16.125;   6.310;   5.785;  -5.553;  -0.342;   1.646;;;;;;;;;;;;;;;;;;
2007-05-10T16:26:54.958Z;0;5.4250e+00;0;     0.123;  3075.968;  21141.459; 0;  20916.494;  21141.459;  22510.945;  19434.977; 44;   5.801; 320.312; 333.918; 354.456; 301.752; 353.774;   0.236;  16.477;  16.116;   6.308;   5.784;  -5.552;  -0.343;   1.645;;;;;;;;;;;;;;;;;;
2007-05-10T16:27:02.958Z;0;5.5490e+00;0;     0.195;  3086.888;  21377.381; 0;  21153.334;  21377.381;  22753.012;  19666.123; 44;   5.800; 320.374; 333.978; 354.519; 301.814; 353.835;   0.237;  16.468;  16.107;   6.307;   5.783;  -5.551;  -0.344;   1.644;;;;;;;;;;;;;;;;;;
2007-05-10T16:27:10.958Z;0;5.4810e+00;0;     0.224;  3086.888;  21248.299; 0;  21022.877;  21248.299;  22622.902;  19536.014; 44;   5.799; 320.436; 334.039; 354.581; 301.876; 353.896;   0.237;  16.459;  16.097;   6.305;   5.782;  -5.551;  -0.346;   1.643;;;;;;;;;;;;;;;;;;
2007-05-10T16:27:18.958Z;0;5.4900e+00;0;     0.149;  3086.888;  21266.096; 0;  21040.863;  21266.096;  22640.842;  19553.953; 44;   5.798; 320.498; 334.099; 354.643; 301.937; 353.957;   0.238;  16.449;  16.088;   6.304;   5.782;  -5.550;  -0.347;   1.642;;;;;;;;;;;;;;;;;;
2007-05-10T16:27:26.958Z;0;5.3880e+00;0;     0.122;  3086.888;  21071.348; 0;  20844.012;  21071.348;  22444.521;  19357.633; 44;   5.797; 320.559; 334.160; 354.706; 301.999; 354.018;   0.239;  16.440;  16.079;   6.302;   5.781;  -5.549;  -0.348;   1.641;;;;;;;;;;;;;;;;;;
2007-05-10T16:27:34.958Z;0;5.5190e+00;0;     0.157;  3086.888;  21320.781; 0;  21096.133;  21320.781;  22695.963;  19609.074; 44;   5.796; 320.621; 334.221; 354.768; 302.061; 354.079;   0.240;  16.431;  16.069;   6.300;   5.780;  -5.549;  -0.349;   1.639;;;;;;;;;;;;;;;;;;
2007-05-10T16:27:42.958Z;0;5.5960e+00;0;     0.186;  3086.888;  21465.943; 0;  21242.830;  21465.943;  22842.271;  19755.383; 44;   5.796; 320.683; 334.281; 354.830; 302.123; 354.140;   0.241;  16.422;  16.060;   6.299;   5.779;  -5.548;  -0.351;   1.638;;;;;;;;;;;;;;;;;;
2007-05-10T16:27:50.958Z;0;5.5110e+00;0;     0.156;  3086.888;  21305.934; 0;  21081.127;  21305.934;  22680.996;  19594.109; 44;   5.795; 320.745; 334.342; 354.893; 302.185; 354.201;   0.242;  16.412;  16.051;   6.297;   5.778;  -5.547;  -0.352;   1.637;;;;;;;;;;;;;;;;;;
2007-05-10T16:27:58.958Z;0;5.4540e+00;0;     0.163;  3086.888;  21197.412; 0;  20971.443;  21197.412;  22571.607;  19484.719; 44;   5.794; 320.807; 334.402; 354.955; 302.246; 354.262;   0.243;  16.403;  16.041;   6.296;   5.777;  -5.547;  -0.353;   1.636;;;;;;;;;;;;;;;;;;
2007-05-10T16:28:06.958Z;0;6.0710e+00;0;     0.089;  3100.384;  22341.934; 0;  22125.768;  22341.934;  23730.199;  20629.814; 44;   5.793; 320.869; 334.463; 355.017; 302.308; 354.323;   0.244;  16.394;  16.032;   6.294;   5.776;  -5.546;  -0.354;   1.635;;;;;;;;;;;;;;;;;;
2007-05-10T16:28:14.958Z;0;6.0230e+00;0;     0.102;  3100.384;  22256.037; 0;  22039.029;  22256.037;  23643.674;  20543.289; 44;   5.792; 320.930; 334.524; 355.080; 302.370; 354.384;   0.244;  16.384;  16.023;   6.293;   5.776;  -5.545;  -0.356;   1.634;;;;;;;;;;;;;;;;;;
2007-05-10T16:28:39.333Z;0;5.6150e+00;0;     0.121;  3100.384;  21503.414; 0;  21278.732;  21503.414;  22885.316;  19784.932; 44;   5.789; 321.119; 334.708; 355.270; 302.559; 354.570;   0.247;  16.356;  15.994;   6.288;   5.773;  -5.544;  -0.359;   1.630;;;;;;;;;;;;;;;;;;
2007-05-10T16:28:46.958Z;0;5.4330e+00;0;     0.133;  3100.384;  21159.895; 0;  20931.525;  21159.895;  22539.043;  19438.658; 44;   5.789; 321.178; 334.766; 355.329; 302.618; 354.628;   0.248;  16.347;  15.985;   6.287;   5.772;  -5.543;  -0.361;   1.629;;;;;;;;;;;;;;;;;;
2007-05-10T16:28:54.958Z;0;5.3360e+00;0;     0.148;  3100.384;  20973.816; 0;  20743.398;  20973.816;  22351.434;  19251.051; 44;   5.788; 321.239; 334.827; 355.391; 302.679; 354.689;   0.249;  16.338;  15.976;   6.285;   5.771;  -5.542;  -0.362;   1.628;;;;;;;;;;;;;;;;;;
2007-05-10T16:29:02.958Z;0;5.4830e+00;0;     0.121;  3108.420;  21255.549; 0;  21027.031;  21255.549;  22638.604;  19530.184; 44;   5.787; 321.301; 334.887; 355.453; 302.741; 354.750;   0.250;  16.329;  15.967;   6.284;   5.770;  -5.542;  -0.363;   1.627;;;;;;;;;;;;;;;;;;
2007-05-10T16:29:10.958Z;0;5.6500e+00;0;     0.143;  3108.420;  21571.275; 0;  21346.139;  21571.275;  22956.855;  19848.436; 44;   5.786; 321.363; 334.948; 355.516; 302.803; 354.811;   0.251;  16.319;  15.957;   6.282;   5.770;  -5.541;  -0.364;   1.626;;;;;;;;;;;;;;;;;;
2007-05-10T16:29:18.957Z;0;5.6000e+00;0;     0.149;  3108.420;  21476.826; 0;  21250.689;  21476.826;  22861.658;  19753.238; 44;   5.785; 321.425; 335.008; 355.578; 302.865; 354.872;   0.252;  16.310;  15.948;   6.280;   5.769;  -5.540;  -0.366;   1.625;;;;;;;;;;;;;;;;;;
2007-05-10T16:29:26.957Z;0;6.5350e+00;0;     0.099;  3108.420;  23165.502; 0;  22956.006;  23165.502;  24562.770;  21454.350; 44;   5.784; 321.487; 335.069; 355.640; 302.927; 354.932;   0.252;  16.301;  15.938;   6.279;   5.768;  -5.540;  -0.367;   1.623;;;;;;;;;;;;;;;;;;
2007-05-10T16:29:34.957Z;0;6.5510e+00;0;     0.094;  3108.420;  23192.844; 0;  22983.598;  23192.844;  24590.297;  21481.877; 44;   5.783; 321.548; 335.129; 355.703; 302.989; 354.993;   0.253;  16.291;  15.929;   6.277;   5.767;  -5.539;  -0.368;   1.622;;;;;;;;;;;;;;;;;;
2007-05-10T16:29:42.957Z;0;6.5740e+00;0;     0.100;  3108.420;  23233.848; 0;  23024.973;  23233.848;  24631.580;  21523.160; 44;   5.783; 321.610; 335.190; 355.765; 303.051; 355.054;   0.254;  16.282;  15.920;   6.276;   5.766;  -5.538;  -0.369;   1.621;;;;;;;;;;;;;;;;;;